| time (UTC) | temp F | wind direction | speed MPH | gust MPH | rain 1hr in | rain 24hr in | rain mn in | humidity % | barometer mb |
| 20260906125503 | 75 | 162 | 0.0 | 0.0 | 0.00 | 0.00 | 0.00 | 67 | 1015.9 |
| 20260906125005 | 75 | 162 | 0.0 | 0.0 | 0.00 | 0.00 | 0.00 | 67 | 1015.8 |
| 20260906124508 | 75 | 162 | 0.0 | 0.0 | 0.00 | 0.00 | 0.00 | 68 | 1015.7 |
| 20260906124006 | 75 | 162 | 0.0 | 0.0 | 0.00 | 0.00 | 0.00 | 67 | 1015.7 |
| 20260906123503 | 75 | 162 | 0.0 | 0.0 | 0.00 | 0.00 | 0.00 | 67 | 1015.7 |
| 20260906123010 | 75 | 162 | 0.0 | 0.0 | 0.00 | 0.00 | 0.00 | 67 | 1015.6 |
| 20260906122505 | 75 | 162 | 0.0 | 0.0 | 0.00 | 0.00 | 0.00 | 67 | 1015.6 |
| 20260906122003 | 75 | 166 | 0.0 | 0.0 | 0.00 | 0.00 | 0.00 | 67 | 1015.5 |
| 20260906121507 | 75 | 156 | 0.0 | 0.0 | 0.00 | 0.00 | 0.00 | 67 | 1015.4 |
| 20260906121007 | 75 | 174 | 0.0 | 2.0 | 0.00 | 0.00 | 0.00 | 67 | 1015.3 |
| 20260906120506 | 75 | 149 | 0.0 | 4.0 | 0.00 | 0.00 | 0.00 | 67 | 1015.2 |
| 20260906120007 | 75 | 159 | 1.0 | 4.0 | 0.00 | 0.00 | 0.00 | 66 | 1015.2 |
| 20260906115504 | 75 | 136 | 1.0 | 4.0 | 0.00 | 0.00 | 0.00 | 66 | 1015.1 |
| 20260906115006 | 75 | 157 | 1.0 | 4.0 | 0.00 | 0.00 | 0.00 | 66 | 1015.0 |
| 20260906114523 | 75 | 182 | 2.0 | 4.0 | 0.00 | 0.00 | 0.00 | 66 | 1015.0 |
| 20260906114007 | 75 | 156 | 1.0 | 5.0 | 0.00 | 0.00 | 0.00 | 66 | 1015.0 |
| 20260906113502 | 76 | 157 | 2.0 | 5.0 | 0.00 | 0.00 | 0.00 | 66 | 1015.0 |
| 20260906113008 | 76 | 146 | 2.0 | 5.0 | 0.00 | 0.00 | 0.00 | 66 | 1014.9 |
| 20260906112503 | 76 | 160 | 2.0 | 5.0 | 0.00 | 0.00 | 0.00 | 66 | 1014.7 |
| 20260906112007 | 76 | 142 | 0.0 | 6.0 | 0.00 | 0.00 | 0.00 | 66 | 1014.5 |
| 20260906111511 | 76 | 148 | 3.0 | 6.0 | 0.00 | 0.00 | 0.00 | 66 | 1014.4 |
| 20260906111006 | 76 | 149 | 3.0 | 6.0 | 0.00 | 0.00 | 0.00 | 66 | 1014.4 |
| 20260906110506 | 76 | 140 | 3.0 | 7.0 | 0.00 | 0.00 | 0.00 | 66 | 1014.3 |
| 20260906110013 | 76 | 150 | 3.0 | 7.0 | 0.00 | 0.00 | 0.00 | 66 | 1014.3 |
| 20260906105507 | 76 | 163 | 3.0 | 7.0 | 0.00 | 0.00 | 0.00 | 66 | 1014.3 |
| 20260906105008 | 76 | 98 | 4.0 | 7.0 | 0.00 | 0.00 | 0.00 | 66 | 1014.3 |
| 20260906104513 | 76 | 145 | 3.0 | 6.0 | 0.00 | 0.00 | 0.00 | 66 | 1014.2 |
| 20260906104002 | 76 | 128 | 3.0 | 7.0 | 0.00 | 0.00 | 0.00 | 66 | 1014.2 |
| 20260906103504 | 76 | 143 | 3.0 | 8.0 | 0.00 | 0.00 | 0.00 | 66 | 1014.3 |
| 20260906103008 | 76 | 139 | 3.0 | 8.0 | 0.00 | 0.00 | 0.00 | 66 | 1014.2 |
| 20260906102510 | 76 | 133 | 3.0 | 6.0 | 0.00 | 0.00 | 0.00 | 66 | 1014.3 |
| 20260906102009 | 76 | 142 | 2.0 | 6.0 | 0.00 | 0.00 | 0.00 | 66 | 1014.4 |
| 20260906101513 | 76 | 171 | 3.0 | 6.0 | 0.00 | 0.00 | 0.00 | 65 | 1014.4 |
| 20260906101008 | 76 | 170 | 3.0 | 6.0 | 0.00 | 0.00 | 0.00 | 65 | 1014.4 |
| 20260906100508 | 76 | 144 | 0.0 | 5.0 | 0.00 | 0.00 | 0.00 | 65 | 1014.4 |
| 20260906100014 | 76 | 153 | 0.0 | 3.0 | 0.00 | 0.00 | 0.00 | 65 | 1014.4 |
| 20260906095513 | 77 | 143 | 0.0 | 2.0 | 0.00 | 0.00 | 0.00 | 65 | 1014.4 |
| 20260906095008 | 77 | 137 | 0.0 | 4.0 | 0.00 | 0.00 | 0.00 | 65 | 1014.4 |
| 20260906094533 | 77 | 130 | 1.0 | 4.0 | 0.00 | 0.00 | 0.00 | 65 | 1014.4 |
| 20260906094005 | 77 | 132 | 1.0 | 4.0 | 0.00 | 0.00 | 0.00 | 65 | 1014.3 |
| 20260906093508 | 77 | 147 | 2.0 | 4.0 | 0.00 | 0.00 | 0.00 | 65 | 1014.3 |
| 20260906093018 | 77 | 145 | 0.0 | 5.0 | 0.00 | 0.00 | 0.00 | 65 | 1014.3 |
| 20260906092507 | 77 | 140 | 3.0 | 6.0 | 0.00 | 0.00 | 0.00 | 65 | 1014.2 |
| 20260906092008 | 77 | 134 | 3.0 | 6.0 | 0.00 | 0.00 | 0.00 | 65 | 1014.2 |
| 20260906091513 | 77 | 126 | 2.0 | 6.0 | 0.00 | 0.00 | 0.00 | 65 | 1014.1 |
| 20260906091011 | 77 | 141 | 3.0 | 6.0 | 0.00 | 0.00 | 0.00 | 64 | 1014.1 |
| 20260906090510 | 77 | 148 | 2.0 | 7.0 | 0.00 | 0.00 | 0.00 | 64 | 1014.0 |
| 20260906090024 | 77 | 153 | 2.0 | 7.0 | 0.00 | 0.00 | 0.00 | 64 | 1014.1 |
| 20260906085510 | 77 | 152 | 3.0 | 5.0 | 0.00 | 0.00 | 0.00 | 64 | 1014.2 |
| 20260906085008 | 77 | 139 | 3.0 | 7.0 | 0.00 | 0.00 | 0.00 | 64 | 1014.2 |
| 20260906084508 | 77 | 148 | 2.0 | 7.0 | 0.00 | 0.00 | 0.00 | 64 | 1014.2 |
| 20260906084007 | 77 | 160 | 3.0 | 6.0 | 0.00 | 0.00 | 0.00 | 65 | 1014.2 |
| 20260906083507 | 78 | 148 | 3.0 | 6.0 | 0.00 | 0.00 | 0.00 | 65 | 1014.1 |
| 20260906083026 | 77 | 145 | 2.0 | 6.0 | 0.00 | 0.00 | 0.00 | 65 | 1014.1 |
| 20260906082511 | 78 | 156 | 3.0 | 5.0 | 0.00 | 0.00 | 0.00 | 65 | 1014.1 |
| 20260906082010 | 77 | 157 | 3.0 | 7.0 | 0.00 | 0.00 | 0.00 | 65 | 1014.1 |
| 20260906081517 | 77 | 148 | 3.0 | 7.0 | 0.00 | 0.00 | 0.00 | 65 | 1014.1 |
| 20260906081010 | 77 | 136 | 3.0 | 6.0 | 0.00 | 0.00 | 0.00 | 65 | 1014.2 |
| 20260906080510 | 77 | 164 | 1.0 | 4.0 | 0.00 | 0.00 | 0.00 | 65 | 1014.2 |
| 20260906080017 | 77 | 166 | 1.0 | 4.0 | 0.00 | 0.00 | 0.00 | 66 | 1014.4 |
| 20260906075511 | 77 | 184 | 0.0 | 4.0 | 0.00 | 0.00 | 0.00 | 66 | 1014.3 |
| 20260906075007 | 77 | 186 | 0.0 | 3.0 | 0.00 | 0.00 | 0.00 | 67 | 1014.3 |
| 20260906074517 | 77 | 165 | 0.0 | 3.0 | 0.00 | 0.00 | 0.00 | 67 | 1014.2 |
| 20260906074012 | 77 | 150 | 0.0 | 3.0 | 0.00 | 0.00 | 0.00 | 67 | 1014.2 |
| 20260906073512 | 78 | 141 | 1.0 | 4.0 | 0.00 | 0.00 | 0.00 | 67 | 1014.2 |
| 20260906073025 | 78 | 136 | 2.0 | 4.0 | 0.00 | 0.00 | 0.00 | 67 | 1014.3 |
| 20260906072511 | 78 | 143 | 2.0 | 4.0 | 0.00 | 0.00 | 0.00 | 67 | 1014.3 |
| 20260906072014 | 77 | 145 | 2.0 | 4.0 | 0.00 | 0.00 | 0.00 | 68 | 1014.2 |
| 20260906071520 | 78 | 134 | 1.0 | 3.0 | 0.00 | 0.00 | 0.00 | 68 | 1014.1 |
| 20260906071012 | 78 | 140 | 0.0 | 3.0 | 0.00 | 0.00 | 0.00 | 68 | 1014.1 |
| 20260906070514 | 78 | 149 | 0.0 | 4.0 | 0.00 | 0.00 | 0.00 | 68 | 1014.2 |
| 20260906070021 | 78 | 125 | 2.0 | 4.0 | 0.00 | 0.00 | 0.00 | 68 | 1014.2 |
| 20260906065513 | 78 | 153 | 0.0 | 2.0 | 0.00 | 0.00 | 0.00 | 68 | 1014.2 |
| 20260906065009 | 78 | 153 | 0.0 | 2.0 | 0.00 | 0.00 | 0.00 | 68 | 1014.2 |
| 20260906064515 | 78 | 163 | 0.0 | 2.0 | 0.00 | 0.00 | 0.00 | 68 | 1014.2 |
| 20260906064010 | 78 | 153 | 0.0 | 5.0 | 0.00 | 0.00 | 0.00 | 68 | 1014.1 |
| 20260906063513 | 78 | 144 | 1.0 | 5.0 | 0.00 | 0.00 | 0.00 | 68 | 1013.9 |
| 20260906063019 | 78 | 132 | 0.0 | 2.0 | 0.00 | 0.00 | 0.00 | 69 | 1013.8 |
| 20260906062514 | 78 | 175 | 0.0 | 3.0 | 0.00 | 0.00 | 0.00 | 69 | 1014.0 |
| 20260906062013 | 78 | 134 | 0.0 | 5.0 | 0.00 | 0.00 | 0.00 | 69 | 1013.9 |
| 20260906061529 | 78 | 141 | 0.0 | 5.0 | 0.00 | 0.00 | 0.00 | 69 | 1013.9 |
| 20260906061011 | 78 | 147 | 2.0 | 5.0 | 0.00 | 0.00 | 0.00 | 70 | 1013.8 |
| 20260906060514 | 77 | 146 | 0.0 | 2.0 | 0.00 | 0.00 | 0.00 | 70 | 1013.8 |
| 20260906060021 | 77 | 111 | 0.0 | 2.0 | 0.00 | 0.00 | 0.00 | 71 | 1013.8 |
| 20260906055507 | 77 | 137 | 0.0 | 0.0 | 0.00 | 0.00 | 0.00 | 72 | 1013.8 |
| 20260906055010 | 77 | 127 | 0.0 | 0.0 | 0.00 | 0.00 | 0.00 | 72 | 1013.9 |
| 20260906054519 | 77 | 135 | 0.0 | 0.0 | 0.00 | 0.00 | 0.00 | 73 | 1013.9 |
| 20260906054013 | 77 | 135 | 0.0 | 0.0 | 0.00 | 0.00 | 0.00 | 73 | 1014.0 |
| 20260906053513 | 77 | 135 | 0.0 | 0.0 | 0.00 | 0.00 | 0.00 | 73 | 1013.9 |
| 20260906053026 | 77 | 135 | 0.0 | 0.0 | 0.00 | 0.00 | 0.00 | 72 | 1013.9 |
| 20260906052512 | 77 | 135 | 0.0 | 0.0 | 0.00 | 0.00 | 0.00 | 72 | 1014.1 |
| 20260906052004 | 77 | 135 | 0.0 | 0.0 | 0.00 | 0.00 | 0.00 | 72 | 1014.0 |
| 20260906051508 | 77 | 135 | 0.0 | 0.0 | 0.00 | 0.00 | 0.00 | 72 | 1014.0 |
| 20260906051007 | 77 | 135 | 0.0 | 0.0 | 0.00 | 0.00 | 0.00 | 71 | 1014.0 |
| 20260906050508 | 77 | 135 | 0.0 | 0.0 | 0.00 | 0.00 | 0.00 | 72 | 1014.0 |
| 20260906050015 | 77 | 170 | 0.0 | 0.0 | 0.00 | 0.00 | 0.00 | 71 | 1014.0 |
| 20260906045511 | 77 | 170 | 0.0 | 1.0 | 0.00 | 0.00 | 0.00 | 71 | 1014.0 |
| 20260906045010 | 77 | 169 | 0.0 | 1.0 | 0.00 | 0.00 | 0.00 | 71 | 1013.9 |
| 20260906044523 | 77 | 159 | 0.0 | 0.0 | 0.00 | 0.00 | 0.00 | 71 | 1013.9 |
| 20260906044013 | 77 | 163 | 0.0 | 0.0 | 0.00 | 0.00 | 0.00 | 71 | 1013.9 |
| 20260906043513 | 77 | 168 | 0.0 | 1.0 | 0.00 | 0.00 | 0.00 | 71 | 1013.9 |
| 20260906043024 | 78 | 211 | 0.0 | 1.0 | 0.00 | 0.00 | 0.00 | 70 | 1013.8 |
| 20260906042511 | 78 | 203 | 0.0 | 2.0 | 0.00 | 0.00 | 0.00 | 70 | 1014.0 |
| 20260906042003 | 78 | 226 | 0.0 | 2.0 | 0.00 | 0.00 | 0.00 | 70 | 1013.9 |
| 20260906041507 | 78 | 205 | 0.0 | 0.0 | 0.00 | 0.00 | 0.00 | 69 | 1013.9 |
| 20260906041009 | 78 | 231 | 0.0 | 0.0 | 0.00 | 0.00 | 0.00 | 69 | 1013.9 |
| 20260906040507 | 79 | 231 | 0.0 | 0.0 | 0.00 | 0.00 | 0.00 | 69 | 1013.9 |
| 20260906040021 | 79 | 231 | 0.0 | 0.0 | 0.00 | 0.00 | 0.00 | 68 | 1014.0 |
| 20260906035512 | 79 | 231 | 0.0 | 0.0 | 0.00 | 0.00 | 0.00 | 69 | 1014.1 |
| 20260906035016 | 79 | 232 | 0.0 | 0.0 | 0.00 | 0.00 | 0.00 | 68 | 1014.1 |
| 20260906034528 | 79 | 201 | 0.0 | 0.0 | 0.00 | 0.00 | 0.00 | 68 | 1014.1 |
| 20260906034015 | 79 | 171 | 0.0 | 0.0 | 0.00 | 0.00 | 0.00 | 68 | 1013.9 |
| 20260906033515 | 79 | 171 | 0.0 | 2.0 | 0.00 | 0.00 | 0.00 | 68 | 1013.9 |
| 20260906033037 | 80 | 226 | 0.0 | 2.0 | 0.00 | 0.00 | 0.00 | 68 | 1013.9 |
| 20260906032503 | 80 | 239 | 0.0 | 0.0 | 0.00 | 0.00 | 0.00 | 68 | 1013.9 |
| 20260906032008 | 80 | 208 | 0.0 | 0.0 | 0.00 | 0.00 | 0.00 | 68 | 1013.7 |
| 20260906031512 | 80 | 129 | 0.0 | 0.0 | 0.00 | 0.00 | 0.00 | 68 | 1013.6 |
| 20260906031008 | 80 | 129 | 0.0 | 0.0 | 0.00 | 0.00 | 0.00 | 68 | 1013.5 |
| 20260906030510 | 80 | 129 | 0.0 | 0.0 | 0.00 | 0.00 | 0.00 | 69 | 1013.4 |
| 20260906030021 | 80 | 129 | 0.0 | 0.0 | 0.00 | 0.00 | 0.00 | 69 | 1013.3 |
| 20260906025512 | 80 | 129 | 0.0 | 0.0 | 0.00 | 0.00 | 0.00 | 68 | 1013.3 |
| 20260906025017 | 80 | 129 | 0.0 | 0.0 | 0.00 | 0.00 | 0.00 | 68 | 1013.4 |
| 20260906024541 | 80 | 336 | 0.0 | 0.0 | 0.00 | 0.00 | 0.00 | 67 | 1013.3 |
| 20260906024014 | 80 | 336 | 0.0 | 0.0 | 0.00 | 0.00 | 0.00 | 68 | 1013.2 |
| 20260906023516 | 80 | 336 | 0.0 | 0.0 | 0.00 | 0.00 | 0.00 | 68 | 1013.2 |
| 20260906023026 | 81 | 336 | 0.0 | 0.0 | 0.00 | 0.00 | 0.00 | 68 | 1013.1 |
| 20260906022506 | 81 | 336 | 0.0 | 0.0 | 0.00 | 0.00 | 0.00 | 68 | 1013.1 |
| 20260906022006 | 81 | 336 | 0.0 | 0.0 | 0.00 | 0.00 | 0.00 | 68 | 1013.1 |
| 20260906021512 | 81 | 336 | 0.0 | 0.0 | 0.00 | 0.00 | 0.00 | 67 | 1013.1 |
| 20260906021012 | 81 | 336 | 0.0 | 0.0 | 0.00 | 0.00 | 0.00 | 68 | 1013.0 |
| 20260906020513 | 81 | 336 | 0.0 | 0.0 | 0.00 | 0.00 | 0.00 | 67 | 1013.1 |
| 20260906020023 | 81 | 336 | 0.0 | 0.0 | 0.00 | 0.00 | 0.00 | 67 | 1013.1 |
| 20260906015515 | 81 | 336 | 0.0 | 0.0 | 0.00 | 0.00 | 0.00 | 67 | 1013.0 |
| 20260906015015 | 81 | 336 | 0.0 | 0.0 | 0.00 | 0.00 | 0.00 | 68 | 1012.9 |
| 20260906014539 | 81 | 336 | 0.0 | 0.0 | 0.00 | 0.00 | 0.00 | 67 | 1012.8 |
| 20260906014016 | 82 | 336 | 0.0 | 0.0 | 0.00 | 0.00 | 0.00 | 68 | 1012.8 |
| 20260906013517 | 82 | 336 | 0.0 | 0.0 | 0.00 | 0.00 | 0.00 | 68 | 1012.6 |
| 20260906013027 | 82 | 336 | 0.0 | 0.0 | 0.00 | 0.00 | 0.00 | 68 | 1012.6 |
| 20260906012510 | 82 | 336 | 0.0 | 0.0 | 0.00 | 0.00 | 0.00 | 67 | 1012.6 |
| 20260906012008 | 82 | 336 | 0.0 | 0.0 | 0.00 | 0.00 | 0.00 | 67 | 1012.6 |
| 20260906011518 | 83 | 336 | 0.0 | 0.0 | 0.00 | 0.00 | 0.00 | 66 | 1012.5 |
| 20260906011013 | 83 | 336 | 0.0 | 0.0 | 0.00 | 0.00 | 0.00 | 66 | 1012.5 |
| 20260906010513 | 83 | 336 | 0.0 | 0.0 | 0.00 | 0.00 | 0.00 | 65 | 1012.6 |
| 20260906010028 | 83 | 336 | 0.0 | 0.0 | 0.00 | 0.00 | 0.00 | 64 | 1012.6 |
| 20260906005515 | 83 | 336 | 0.0 | 2.0 | 0.00 | 0.00 | 0.00 | 64 | 1012.6 |
| 20260906005017 | 83 | 336 | 0.0 | 2.0 | 0.00 | 0.00 | 0.00 | 64 | 1012.7 |
| 20260906004529 | 83 | 234 | 0.0 | 0.0 | 0.00 | 0.00 | 0.00 | 63 | 1012.7 |
| 20260906004014 | 83 | 182 | 0.0 | 0.0 | 0.00 | 0.00 | 0.00 | 62 | 1012.5 |
| 20260906003508 | 83 | 182 | 0.0 | 0.0 | 0.00 | 0.00 | 0.00 | 63 | 1012.7 |
| 20260906003014 | 83 | 241 | 0.0 | 2.0 | 0.00 | 0.00 | 0.00 | 63 | 1012.7 |
| 20260906002511 | 83 | 241 | 0.0 | 2.0 | 0.00 | 0.00 | 0.00 | 63 | 1012.7 |
| 20260906002012 | 83 | 268 | 0.0 | 3.0 | 0.00 | 0.00 | 0.00 | 63 | 1012.8 |
| 20260906001523 | 83 | 298 | 0.0 | 3.0 | 0.00 | 0.00 | 0.00 | 63 | 1012.6 |
| 20260906001015 | 83 | 263 | 0.0 | 2.0 | 0.00 | 0.00 | 0.00 | 63 | 1012.6 |
| 20260906000515 | 83 | 263 | 0.0 | 2.0 | 0.00 | 0.00 | 0.00 | 63 | 1012.6 |
| 20260906000032 | 83 | 263 | 0.0 | 1.0 | 0.00 | 0.00 | 0.00 | 63 | 1012.6 |
| 20260905235519 | 83 | 39 | 0.0 | 2.0 | 0.00 | 0.00 | 0.00 | 63 | 1012.4 |
| 20260905235015 | 83 | 39 | 1.0 | 4.0 | 0.00 | 0.00 | 0.00 | 63 | 1012.3 |
| 20260905234529 | 83 | 39 | 1.0 | 4.0 | 0.00 | 0.00 | 0.00 | 63 | 1012.2 |
| 20260905234014 | 82 | 38 | 2.0 | 5.0 | 0.00 | 0.00 | 0.00 | 64 | 1012.3 |
| 20260905233510 | 82 | 49 | 3.0 | 5.0 | 0.00 | 0.00 | 0.00 | 64 | 1012.4 |
| 20260905233015 | 82 | 37 | 2.0 | 5.0 | 0.00 | 0.00 | 0.00 | 64 | 1012.4 |
| 20260905232513 | 82 | 30 | 1.0 | 11.0 | 0.00 | 0.00 | 0.00 | 65 | 1012.5 |
| 20260905232013 | 83 | 342 | 4.0 | 11.0 | 0.00 | 0.00 | 0.00 | 65 | 1012.7 |
| 20260905231524 | 82 | 86 | 0.0 | 2.0 | 0.00 | 0.00 | 0.00 | 63 | 1012.5 |
| 20260905231015 | 82 | 86 | 0.0 | 2.0 | 0.00 | 0.00 | 0.00 | 65 | 1012.4 |
| 20260905230517 | 82 | 155 | 0.0 | 0.0 | 0.00 | 0.00 | 0.00 | 65 | 1012.4 |
| 20260905230006 | 81 | 304 | 0.0 | 0.0 | 0.00 | 0.00 | 0.00 | 66 | 1012.4 |
| 20260905225503 | 81 | 304 | 0.0 | 2.0 | 0.00 | 0.00 | 0.00 | 66 | 1012.5 |
| 20260905225006 | 81 | 304 | 0.0 | 4.0 | 0.00 | 0.00 | 0.00 | 67 | 1012.5 |
| 20260905224510 | 81 | 273 | 2.0 | 8.0 | 0.00 | 0.00 | 0.00 | 67 | 1012.6 |
| 20260905224011 | 81 | 290 | 3.0 | 9.0 | 0.00 | 0.00 | 0.00 | 66 | 1012.7 |
| 20260905223511 | 82 | 294 | 4.0 | 9.0 | 0.00 | 0.00 | 0.00 | 66 | 1012.7 |
| 20260905223019 | 82 | 321 | 6.0 | 17.0 | 0.00 | 0.00 | 0.00 | 65 | 1012.7 |
| 20260905222516 | 83 | 302 | 9.0 | 17.0 | 0.00 | 0.00 | 0.00 | 62 | 1012.9 |
| 20260905222016 | 85 | 313 | 8.0 | 14.0 | 0.00 | 0.00 | 0.00 | 58 | 1012.8 |
| 20260905221527 | 85 | 289 | 3.0 | 8.0 | 0.00 | 0.00 | 0.00 | 61 | 1012.8 |
| 20260905221014 | 85 | 302 | 0.0 | 0.0 | 0.00 | 0.00 | 0.00 | 60 | 1012.4 |
| 20260905220503 | 85 | 302 | 0.0 | 2.0 | 0.00 | 0.00 | 0.00 | 61 | 1012.3 |
| 20260905220008 | 85 | 302 | 0.0 | 8.0 | 0.00 | 0.00 | 0.00 | 61 | 1012.4 |
| 20260905215508 | 85 | 302 | 0.0 | 8.0 | 0.00 | 0.00 | 0.00 | 61 | 1012.3 |
| 20260905215009 | 85 | 306 | 4.0 | 7.0 | 0.00 | 0.00 | 0.00 | 62 | 1012.2 |
| 20260905214520 | 85 | 326 | 1.0 | 5.0 | 0.00 | 0.00 | 0.00 | 64 | 1012.1 |
| 20260905214011 | 85 | 321 | 0.0 | 2.0 | 0.00 | 0.00 | 0.00 | 64 | 1012.0 |
| 20260905213513 | 84 | 161 | 0.0 | 2.0 | 0.00 | 0.00 | 0.00 | 62 | 1012.3 |
| 20260905213025 | 84 | 106 | 1.0 | 13.0 | 0.00 | 0.00 | 0.00 | 63 | 1012.5 |
| 20260905212515 | 85 | 331 | 1.0 | 22.0 | 0.00 | 0.00 | 0.00 | 61 | 1012.6 |
| 20260905212017 | 85 | 302 | 14.0 | 30.0 | 0.00 | 0.00 | 0.00 | 58 | 1012.7 |
| 20260905211537 | 88 | 346 | 20.0 | 30.0 | 0.00 | 0.00 | 0.00 | 51 | 1012.9 |
| 20260905211017 | 90 | 324 | 12.0 | 19.0 | 0.00 | 0.00 | 0.00 | 48 | 1012.8 |
| 20260905210506 | 93 | 292 | 12.0 | 19.0 | 0.00 | 0.00 | 0.00 | 43 | 1012.5 |
| 20260905210010 | 96 | 286 | 7.0 | 14.0 | 0.00 | 0.00 | 0.00 | 38 | 1012.7 |
| 20260905205507 | 96 | 61 | 2.0 | 10.0 | 0.00 | 0.00 | 0.00 | 36 | 1012.4 |
| 20260905205011 | 97 | 144 | 5.0 | 11.0 | 0.00 | 0.00 | 0.00 | 36 | 1012.5 |
| 20260905204526 | 97 | 101 | 7.0 | 11.0 | 0.00 | 0.00 | 0.00 | 35 | 1012.6 |
| 20260905204013 | 97 | 153 | 4.0 | 12.0 | 0.00 | 0.00 | 0.00 | 36 | 1012.4 |
| 20260905203512 | 97 | 206 | 4.0 | 12.0 | 0.00 | 0.00 | 0.00 | 35 | 1012.4 |
| 20260905203027 | 97 | 155 | 6.0 | 13.0 | 0.00 | 0.00 | 0.00 | 36 | 1012.4 |
| 20260905202514 | 97 | 170 | 7.0 | 13.0 | 0.00 | 0.00 | 0.00 | 36 | 1012.1 |
| 20260905202014 | 97 | 140 | 5.0 | 12.0 | 0.00 | 0.00 | 0.00 | 36 | 1012.2 |
| 20260905201530 | 98 | 360 | 5.0 | 14.0 | 0.00 | 0.00 | 0.00 | 36 | 1012.3 |
| 20260905201007 | 98 | 142 | 7.0 | 17.0 | 0.00 | 0.00 | 0.00 | 36 | 1012.5 |
| 20260905200513 | 98 | 77 | 4.0 | 17.0 | 0.00 | 0.00 | 0.00 | 35 | 1012.7 |
| 20260905200018 | 99 | 148 | 7.0 | 16.0 | 0.00 | 0.00 | 0.00 | 35 | 1012.7 |
| 20260905195510 | 98 | 155 | 8.0 | 16.0 | 0.00 | 0.00 | 0.00 | 37 | 1012.5 |
| 20260905195016 | 98 | 153 | 7.0 | 13.0 | 0.00 | 0.00 | 0.00 | 36 | 1012.5 |
| 20260905194526 | 98 | 178 | 8.0 | 13.0 | 0.00 | 0.00 | 0.00 | 36 | 1012.5 |
| 20260905194015 | 98 | 165 | 7.0 | 13.0 | 0.00 | 0.00 | 0.00 | 36 | 1012.7 |
| 20260905193515 | 98 | 107 | 5.0 | 16.0 | 0.00 | 0.00 | 0.00 | 37 | 1012.9 |
| 20260905193029 | 98 | 360 | 6.0 | 16.0 | 0.00 | 0.00 | 0.00 | 36 | 1013.0 |
| 20260905192516 | 98 | 360 | 5.0 | 9.0 | 0.00 | 0.00 | 0.00 | 37 | 1013.1 |
| 20260905192018 | 97 | 159 | 5.0 | 9.0 | 0.00 | 0.00 | 0.00 | 38 | 1013.1 |
| 20260905191509 | 97 | 158 | 5.0 | 10.0 | 0.00 | 0.00 | 0.00 | 39 | 1013.3 |
| 20260905191012 | 97 | 360 | 5.0 | 10.0 | 0.00 | 0.00 | 0.00 | 38 | 1013.4 |
| 20260905190510 | 97 | 160 | 5.0 | 9.0 | 0.00 | 0.00 | 0.00 | 38 | 1013.4 |
| 20260905190019 | 97 | 118 | 3.0 | 12.0 | 0.00 | 0.00 | 0.00 | 38 | 1013.5 |
| 20260905185512 | 97 | 160 | 6.0 | 12.0 | 0.00 | 0.00 | 0.00 | 38 | 1013.5 |
| 20260905185014 | 97 | 136 | 2.0 | 12.0 | 0.00 | 0.00 | 0.00 | 38 | 1013.3 |
| 20260905184535 | 97 | 159 | 6.0 | 12.0 | 0.00 | 0.00 | 0.00 | 37 | 1013.3 |
| 20260905184014 | 98 | 151 | 6.0 | 13.0 | 0.00 | 0.00 | 0.00 | 38 | 1013.3 |
| 20260905183517 | 99 | 147 | 9.0 | 13.0 | 0.00 | 0.00 | 0.00 | 37 | 1013.5 |
| 20260905183032 | 99 | 113 | 5.0 | 10.0 | 0.00 | 0.00 | 0.00 | 37 | 1013.5 |
| 20260905182522 | 99 | 196 | 4.0 | 14.0 | 0.00 | 0.00 | 0.00 | 38 | 1013.6 |
| 20260905182021 | 99 | 360 | 6.0 | 14.0 | 0.00 | 0.00 | 0.00 | 37 | 1013.7 |
| 20260905181515 | 99 | 183 | 3.0 | 13.0 | 0.00 | 0.00 | 0.00 | 38 | 1013.8 |
| 20260905181015 | 100 | 142 | 6.0 | 13.0 | 0.00 | 0.00 | 0.00 | 38 | 1013.9 |
| 20260905180514 | 99 | 204 | 5.0 | 15.0 | 0.00 | 0.00 | 0.00 | 41 | 1013.9 |
| 20260905180023 | 99 | 167 | 6.0 | 15.0 | 0.00 | 0.00 | 0.00 | 40 | 1013.9 |
| 20260905175515 | 99 | 123 | 6.0 | 14.0 | 0.00 | 0.00 | 0.00 | 39 | 1013.9 |
| 20260905175016 | 98 | 190 | 7.0 | 14.0 | 0.00 | 0.00 | 0.00 | 41 | 1014.1 |
| 20260905174527 | 98 | 87 | 6.0 | 13.0 | 0.00 | 0.00 | 0.00 | 40 | 1014.2 |
| 20260905174019 | 97 | 187 | 5.0 | 14.0 | 0.00 | 0.00 | 0.00 | 42 | 1014.2 |
| 20260905173518 | 97 | 150 | 6.0 | 14.0 | 0.00 | 0.00 | 0.00 | 41 | 1014.2 |
| 20260905173033 | 97 | 199 | 6.0 | 11.0 | 0.00 | 0.00 | 0.00 | 42 | 1014.2 |
| 20260905172515 | 97 | 134 | 6.0 | 11.0 | 0.00 | 0.00 | 0.00 | 43 | 1014.3 |
| 20260905172009 | 96 | 158 | 5.0 | 9.0 | 0.00 | 0.00 | 0.00 | 43 | 1014.3 |
| 20260905171517 | 96 | 187 | 4.0 | 10.0 | 0.00 | 0.00 | 0.00 | 44 | 1014.3 |
| 20260905171011 | 96 | 173 | 4.0 | 11.0 | 0.00 | 0.00 | 0.00 | 43 | 1014.4 |
| 20260905170512 | 96 | 140 | 6.0 | 11.0 | 0.00 | 0.00 | 0.00 | 44 | 1014.4 |
| 20260905170027 | 95 | 144 | 4.0 | 13.0 | 0.00 | 0.00 | 0.00 | 44 | 1014.5 |
| 20260905165515 | 95 | 166 | 2.0 | 13.0 | 0.00 | 0.00 | 0.00 | 45 | 1014.4 |
| 20260905165018 | 95 | 154 | 5.0 | 11.0 | 0.00 | 0.00 | 0.00 | 44 | 1014.4 |
| 20260905164531 | 95 | 134 | 6.0 | 11.0 | 0.00 | 0.00 | 0.00 | 44 | 1014.4 |
| 20260905164020 | 95 | 140 | 5.0 | 10.0 | 0.00 | 0.00 | 0.00 | 44 | 1014.3 |
| 20260905163516 | 95 | 159 | 4.0 | 9.0 | 0.00 | 0.00 | 0.00 | 45 | 1014.3 |
| 20260905163035 | 94 | 146 | 5.0 | 9.0 | 0.00 | 0.00 | 0.00 | 46 | 1014.4 |
| 20260905162520 | 94 | 360 | 4.0 | 10.0 | 0.00 | 0.00 | 0.00 | 46 | 1014.5 |
| 20260905162013 | 93 | 215 | 5.0 | 10.0 | 0.00 | 0.00 | 0.00 | 46 | 1014.6 |
| 20260905161630 | 93 | 252 | 2.0 | 11.0 | 0.00 | 0.00 | 0.00 | 48 | 1014.5 |
| 20260905160515 | 92 | 160 | 5.0 | 9.0 | 0.00 | 0.00 | 0.00 | 49 | 1014.6 |
| 20260905160026 | 92 | 176 | 5.0 | 9.0 | 0.00 | 0.00 | 0.00 | 47 | 1014.5 |
| 20260905155516 | 92 | 194 | 3.0 | 8.0 | 0.00 | 0.00 | 0.00 | 48 | 1014.5 |
| 20260905155016 | 92 | 191 | 2.0 | 9.0 | 0.00 | 0.00 | 0.00 | 49 | 1014.5 |
| 20260905154535 | 91 | 209 | 3.0 | 9.0 | 0.00 | 0.00 | 0.00 | 49 | 1014.5 |
| 20260905154017 | 90 | 215 | 4.0 | 9.0 | 0.00 | 0.00 | 0.00 | 49 | 1014.4 |
| 20260905153517 | 90 | 233 | 5.0 | 9.0 | 0.00 | 0.00 | 0.00 | 50 | 1014.4 |
| 20260905153034 | 89 | 182 | 4.0 | 10.0 | 0.00 | 0.00 | 0.00 | 51 | 1014.4 |
| 20260905152512 | 89 | 262 | 4.0 | 12.0 | 0.00 | 0.00 | 0.00 | 51 | 1014.4 |
| 20260905152010 | 88 | 180 | 5.0 | 13.0 | 0.00 | 0.00 | 0.00 | 52 | 1014.4 |
| 20260905151530 | 88 | 188 | 5.0 | 13.0 | 0.00 | 0.00 | 0.00 | 52 | 1014.4 |
| 20260905151014 | 88 | 190 | 7.0 | 11.0 | 0.00 | 0.00 | 0.00 | 53 | 1014.4 |
| 20260905150519 | 87 | 142 | 2.0 | 12.0 | 0.00 | 0.00 | 0.00 | 53 | 1014.4 |
| 20260905150031 | 87 | 188 | 5.0 | 12.0 | 0.00 | 0.00 | 0.00 | 54 | 1014.4 |
| 20260905145518 | 87 | 187 | 2.0 | 10.0 | 0.00 | 0.00 | 0.00 | 54 | 1014.3 |
| 20260905145016 | 86 | 212 | 3.0 | 10.0 | 0.00 | 0.00 | 0.00 | 55 | 1014.2 |
| 20260905144534 | 86 | 217 | 4.0 | 9.0 | 0.00 | 0.00 | 0.00 | 56 | 1014.2 |
| 20260905144017 | 85 | 189 | 5.0 | 9.0 | 0.00 | 0.00 | 0.00 | 56 | 1014.1 |
| 20260905143520 | 85 | 155 | 2.0 | 8.0 | 0.00 | 0.00 | 0.00 | 57 | 1014.1 |
| 20260905143025 | 84 | 202 | 2.0 | 10.0 | 0.00 | 0.00 | 0.00 | 58 | 1014.1 |
| 20260905142512 | 84 | 200 | 3.0 | 11.0 | 0.00 | 0.00 | 0.00 | 58 | 1014.2 |
| 20260905142014 | 83 | 155 | 7.0 | 11.0 | 0.00 | 0.00 | 0.00 | 59 | 1014.1 |
| 20260905141503 | 82 | 213 | 1.0 | 7.0 | 0.00 | 0.00 | 0.00 | 61 | 1014.1 |
| 20260905141002 | 82 | 183 | 2.0 | 7.0 | 0.00 | 0.00 | 0.00 | 61 | 1014.1 |
| 20260905140504 | 81 | 166 | 2.0 | 7.0 | 0.00 | 0.00 | 0.00 | 62 | 1014.0 |
| 20260905140007 | 81 | 360 | 2.0 | 8.0 | 0.00 | 0.00 | 0.00 | 62 | 1014.0 |
| 20260905135506 | 81 | 166 | 4.0 | 10.0 | 0.00 | 0.00 | 0.00 | 62 | 1013.9 |
| 20260905135009 | 81 | 168 | 4.0 | 10.0 | 0.00 | 0.00 | 0.00 | 62 | 1013.9 |
| 20260905134513 | 80 | 172 | 6.0 | 9.0 | 0.00 | 0.00 | 0.00 | 63 | 1013.8 |
| 20260905134011 | 80 | 153 | 1.0 | 8.0 | 0.00 | 0.00 | 0.00 | 64 | 1013.8 |
| 20260905133512 | 80 | 144 | 2.0 | 8.0 | 0.00 | 0.00 | 0.00 | 64 | 1013.8 |
| 20260905133023 | 79 | 150 | 1.0 | 6.0 | 0.00 | 0.00 | 0.00 | 65 | 1013.8 |
| 20260905132514 | 79 | 173 | 0.0 | 5.0 | 0.00 | 0.00 | 0.00 | 65 | 1013.7 |
| 20260905132016 | 79 | 134 | 1.0 | 4.0 | 0.00 | 0.00 | 0.00 | 66 | 1013.8 |
| 20260905131504 | 78 | 150 | 1.0 | 4.0 | 0.00 | 0.00 | 0.00 | 66 | 1013.7 |
| 20260905131005 | 78 | 160 | 2.0 | 4.0 | 0.00 | 0.00 | 0.00 | 66 | 1013.7 |
| 20260905130507 | 78 | 150 | 0.0 | 2.0 | 0.00 | 0.00 | 0.00 | 66 | 1013.6 |
| 20260905130012 | 78 | 151 | 0.0 | 4.0 | 0.00 | 0.00 | 0.00 | 66 | 1013.5 |